Weather History for Liberia, Costa Rica

Change the Weather History Date:

Wednesday, April 3, 2013

  Actual Average Record
Temperature  
Mean Temperature 84 °F -  
Max Temperature 96 °F 93 °F - ()
Min Temperature 72 °F 76 °F - ()
Cooling Degree Days 19    
Growing Degree Days 34 (Base 50)    
Moisture  
Dew Point 66 °F    
Average Humidity 51    
Maximum Humidity 78    
Minimum Humidity 27    
Precipitation  
Precipitation 0.00 in - - ()
Sea Level Pressure  
Sea Level Pressure 29.83 in    
Wind  
Wind Speed 5 mph ()    
Max Wind Speed 13 mph    
Max Gust Speed -    
Visibility 8.0 miles    
Events      
T = Trace of Precipitation, MM = Missing Value Source: Averaged Metar Reports

Daily Weather History Graph

Daily Weather History Graph

Search for Another Location

Airport:

Trip Planner

Search our weather history database for the weather conditions in past years. The results will help you decide how hot, cold, wet, or windy it might be!

Date:

Astronomy

Apr. 03, 2013 Rise Set
Actual Time 5:37 AM CST 5:52 PM CST
Civil Twilight 5:16 AM CST 6:14 PM CST
Nautical Twilight 4:52 AM CST 6:38 PM CST
Astronomical Twilight 4:27 AM CST 7:03 PM CST
Moon 12:10 AM CST (4/3) 12:09 PM CST (4/3)
Length of Visible Light 12h 57m
Length of Day
12h 15m
Last Quarter, 44% of the Moon is Illuminated
Apr 3
Last Quarter
Apr 10
New
Apr 18
First Quarter
Apr 25
Full
May 2
Last Quarter

Hourly Weather History & Observations

Time (CST) Temp. Heat Index Dew Point Humidity Pressure Visibility Wind Dir Wind Speed Gust Speed Precip Events Conditions
6:00 AM 73.4 °F - 66.2 °F 78% 29.84 in - ENE 4.6 mph - N/A   Clear
7:00 AM 78.8 °F - 66.2 °F 65% 29.87 in - Calm Calm - N/A   Clear
8:00 AM 80.6 °F 82.7 °F 66.2 °F 61% 29.89 in - North 5.8 mph - N/A   Clear
9:00 AM 87 °F - 65 °F 38% 29.91 in 12 mi ESE 3.5 mph - -   Overcast
9:00 AM 87.8 °F 89.4 °F 64.4 °F 46% 29.89 in - ESE 3.5 mph - N/A   Clear
10:00 AM 91.4 °F 93.2 °F 64.4 °F 41% 29.88 in - ENE 12.7 mph - N/A   Clear
11:00 AM 93.2 °F 94.1 °F 62.6 °F 36% 29.87 in 6.2 mi East 11.5 mph - N/A   Mostly Cloudy
12:00 PM 92 °F - 62 °F 27% 29.87 in 12 mi East 9.2 mph - -   Overcast
12:00 PM 93.2 °F 94.1 °F 62.6 °F 36% 29.85 in 6.2 mi East 9.2 mph - N/A   Mostly Cloudy
1:00 PM 93.2 °F 94.1 °F 62.6 °F 36% 29.81 in 6.2 mi East 11.5 mph - N/A   Mostly Cloudy
2:00 PM 93.2 °F 94.1 °F 62.6 °F 36% 29.77 in 6.2 mi ENE 9.2 mph - N/A   Mostly Cloudy
3:00 PM 93 °F - 63 °F 27% 29.76 in 12 mi NW 3.5 mph - -   Overcast
3:00 PM 93.2 °F 94.1 °F 62.6 °F 36% 29.75 in 6.2 mi NW 3.5 mph - N/A   Mostly Cloudy
4:00 PM 87.8 °F 90.4 °F 66.2 °F 49% 29.75 in 6.2 mi West 10.4 mph - N/A   Mostly Cloudy
5:00 PM 84.2 °F 87.3 °F 68.0 °F 58% 29.77 in 6.2 mi WNW 9.2 mph - N/A   Mostly Cloudy
6:00 PM 83 °F - 70 °F 57% 29.80 in 12 mi WNW 6.9 mph - -   Overcast
6:00 PM 82.4 °F 86.3 °F 69.8 °F 66% 29.79 in 6.2 mi WNW 6.9 mph - N/A   Mostly Cloudy
7:00 PM 82.4 °F 87.2 °F 71.6 °F 70% 29.81 in 6.2 mi WNW 3.5 mph - N/A   Mostly Cloudy
8:00 PM 80.6 °F 84.6 °F 71.6 °F 74% 29.84 in - West 5.8 mph - N/A   Clear
9:00 PM 80.6 °F 83.2 °F 68.0 °F 65% 29.86 in - Calm Calm - N/A   Clear
10:00 PM 80.6 °F 83.2 °F 68.0 °F 65% 29.88 in - North 5.8 mph - N/A   Clear